Tracking 19634 objects as of 22-May-2019
HD Live streaming from Space Station
objects crossing your sky now

COSMOS 723

Track COSMOS 723 now!
10-day predictions
COSMOS 723 is classified as:


NORAD ID: 7718
Int'l Code: 1975-024A
Perigee: 898.8 km
Apogee: 976.2 km
Inclination: 64.7 °
Period: 103.6 minutes
Semi major axis: 7308 km
RCS: 3.16 m2 (large)
Launch date: April 2, 1975
Source: Commonwealth of Independent States (former USSR) (CIS)
Launch site: TYURATAM MISSILE AND SPACE COMPLEX (TTMTR)
aabbcc
Your satellite tracking list
Your tracking list is empty




NASA's NSSDC Master Catalog

Two Line Element Set (TLE):
1  7718U 75024A   19141.51443437 -.00000099  00000-0 -54174-5 0  9994
2  7718  64.7170 280.5966 0052961 327.6649  32.1169 13.89495142239963
Source of the keplerian elements: AFSPC